Location: Cahas Mountain Overlook
(37.0833°N, 80.1000°W)
Time: 08:31:17
(UTC-04:00)

Explorer 7 - Pass Details

Date: 14 February 2026
Orbit: 430 x 540 km, 50.2° (Epoch: 14 March)

Event Time Altitude Azimuth Distance (km) Brightness Sun altitude
Rises 21:07:50 0° 315° (NW) 2,573 10.9 -38.0°
Enters shadow 21:08:41 - 319° (NW) 2,277 10.6 -38.1°
Reaches altitude 10° 21:10:28 10° 333° (NNW) 1,714 - -38.5°
Maximum altitude 21:13:22 20° 22° (NNE) 1,243 - -39.0°
Drops below altitude 10° 21:16:20 10° 70° (ENE) 1,759 - -39.6°
Sets 21:19:04 0° 87° (E) 2,666 - -40.1°
